GFSFLT1_925_temp_222.txt.gz
Temp
25 25 25 26 26 25 24 22 22 22 20 19 19 19 20 21 22 22 22 21 21 20 20 20 20 20 19 19 19 19 19 19
24 27 28 25 25 24 25 23 22 21 19 19 18 19 19 19 20 21 21 21 21 21 20 20 20 20 20 20 19 19 18 18
20 23 25 24 25 26 24 24 22 22 20 20 19 18 18 19 19 19 20 20 20 20 20 20 20 19 19 19 19 18 18 19
21 21 24 24 24 25 24 24 24 22 21 19 19 20 19 18 18 19 20 20 20 20 20 20 19 19 19 19 19 18 17 18
20 21 22 24 26 25 24 23 22 22 20 19 19 20 19 19 18 18 18 19 20 20 20 20 19 18 18 19 19 19 18 17
20 20 23 27 27 27 26 24 22 21 20 19 19 19 20 20 19 19 18 18 19 20 20 20 19 18 18 19 18 18 18 18
19 21 23 26 25 25 25 23 22 21 20 20 20 19 19 19 20 19 19 18 19 19 19 19 19 18 18 18 18 18 18 18
19 19 18 21 24 24 22 21 20 20 20 19 19 20 20 21 20 19 19 18 18 19 19 19 19 19 18 18 17 17 17 17
19 18 17 20 22 21 21 19 19 19 19 20 19 20 20 20 20 20 20 21 21 21 20 19 19 19 19 17 17 17 17 17
19 19 17 20 22 22 21 19 18 19 19 19 20 20 19 20 20 21 21 21 21 21 21 20 19 18 18 17 17 17 17 17
19 18 17 19 20 20 19 19 19 19 19 20 20 20 20 20 20 20 20 20 20 20 20 19 19 18 17 17 17 17 16 16
18 17 17 18 17 18 19 18 19 20 20 20 21 20 20 19 19 20 19 19 19 19 19 19 19 17 17 17 17 16 16 16
17 16 15 15 15 16 18 18 19 20 21 21 20 20 20 20 20 20 19 18 18 19 18 18 18 17 17 17 17 17 17 16
17 15 15 14 15 16 16 18 19 19 19 19 19 19 19 19 18 18 18 18 18 18 17 17 17 17 17 17 17 16 16 16
17 15 15 15 15 15 16 16 18 16 16 17 17 17 17 17 17 17 17 17 17 17 17 16 17 16 16 16 16 15 14 13
18 17 15 15 15 16 16 17 17 16 15 15 15 15 16 15 15 16 16 16 16 15 15 15 15 15 15 14 13 13 11 10
18 19 17 15 15 16 16 16 15 14 15 15 15 15 15 15 15 15 14 15 15 15 15 14 14 13 12 12 12 11 10 10
17 18 17 16 16 17 16 15 15 14 14 15 15 15 15 15 15 15 14 14 14 13 13 12 12 11 11 11 11 11 10 9
18 16 16 18 18 17 17 16 15 14 14 14 14 14 14 14 14 14 13 13 13 12 11 11 11 9 9 9 9 9 8 8

GFSFLT1_925_temp_228.txt.gz
Temp
32 31 31 30 30 29 27 24 23 22 22 22 22 22 22 22 22 22 22 20 20 20 21 21 21 21 21 21 21 21 21 22
34 32 31 30 30 29 27 26 24 23 23 23 23 23 23 23 23 22 22 21 20 20 21 21 20 21 22 21 21 20 21 21
34 32 31 31 30 30 28 27 25 23 24 24 24 24 24 23 23 23 21 21 20 20 20 21 20 21 21 21 20 21 21 21
33 33 31 30 29 29 29 28 26 24 24 24 24 24 23 23 23 22 21 21 20 20 20 20 20 20 21 20 20 20 22 21
33 34 33 32 30 28 28 29 28 25 24 25 24 24 24 24 23 23 22 21 20 20 20 20 20 20 20 21 20 20 20 22
33 34 33 33 32 29 25 27 28 27 24 24 24 24 25 26 24 24 22 22 20 20 19 19 19 19 20 20 20 19 20 20
32 32 32 33 32 29 25 25 26 27 25 23 24 24 24 26 25 24 23 22 21 19 19 19 19 19 20 20 19 20 19 20
32 32 33 32 30 28 24 24 25 26 25 24 23 23 23 24 25 24 24 22 21 20 19 19 19 19 19 19 19 19 19 19
30 30 31 30 29 27 24 24 25 25 25 24 23 23 23 24 24 25 23 23 22 21 19 19 19 19 19 19 19 19 19 18
31 30 30 28 29 27 26 25 25 25 25 24 23 23 23 24 24 23 24 23 22 21 20 20 20 19 19 18 18 18 18 18
30 30 29 28 28 27 25 24 25 26 25 24 24 23 23 23 23 23 23 23 22 21 21 20 20 20 19 18 18 18 18 18
28 29 28 28 27 26 25 23 23 23 23 24 24 23 23 22 23 23 22 22 22 21 21 21 20 19 19 18 18 17 17 17
28 28 28 27 28 27 26 24 23 22 22 23 23 23 23 22 22 22 22 22 22 22 21 21 20 18 18 18 17 18 17 17
26 27 27 27 27 26 25 24 23 22 22 22 22 22 22 22 22 22 22 22 22 22 21 20 18 18 18 18 17 17 17 16
25 26 25 25 25 25 24 23 22 21 21 22 22 22 22 22 22 22 22 21 21 20 19 18 18 18 17 17 17 17 16 16
24 24 25 25 24 24 24 24 22 20 20 21 21 21 21 21 21 21 21 20 20 19 18 18 17 17 16 17 16 16 16 15
23 23 24 24 23 23 22 23 22 20 19 20 20 19 20 20 19 20 18 17 17 17 16 17 16 16 16 16 16 15 14 14
23 23 23 23 23 21 21 21 21 20 19 19 19 18 17 17 18 17 16 16 16 16 15 16 15 15 15 15 15 14 13 12
22 23 22 21 20 20 20 20 21 20 20 19 18 18 18 17 16 16 15 15 15 15 15 15 14 15 15 14 14 12 11 10

GFSFLT1_925_temp_231.txt.gz
Temp
36 36 35 34 33 32 30 26 26 25 24 24 24 25 24 24 24 24 24 22 22 22 23 23 23 23 23 23 23 23 23 24
36 35 35 34 34 32 31 28 26 25 24 25 25 25 25 25 25 25 24 23 22 21 22 23 23 23 23 23 23 23 23 23
37 36 34 34 33 33 31 30 26 25 25 25 26 26 26 25 25 25 24 24 23 21 21 22 22 22 23 23 23 23 22 23
37 37 35 34 33 33 32 31 28 26 26 26 26 26 26 26 26 25 25 24 23 22 21 22 23 22 22 22 22 22 23 23
36 36 36 34 33 32 32 32 30 28 26 27 27 27 27 27 26 26 25 24 23 22 22 21 22 22 22 22 21 21 21 23
35 35 36 35 34 33 31 30 31 30 28 26 27 27 27 27 27 26 25 25 23 22 22 21 21 21 21 22 22 21 21 21
35 34 34 35 35 34 32 30 29 30 30 27 26 27 26 27 28 27 26 25 24 22 22 21 21 21 21 21 21 22 21 21
34 34 34 34 34 34 33 31 29 28 29 28 26 26 26 26 27 27 27 26 24 23 22 21 21 21 21 21 21 21 21 21
32 33 33 34 34 33 31 30 28 27 28 28 27 25 25 26 26 27 27 26 25 24 22 21 21 20 20 20 21 21 20 20
32 32 32 31 32 32 30 29 27 27 27 27 27 26 25 25 26 26 27 26 26 24 22 21 21 20 20 20 20 20 20 20
32 33 32 31 30 30 29 27 27 27 27 26 26 26 25 25 25 25 26 26 25 25 23 21 21 21 20 20 20 20 20 19
31 32 31 30 30 29 29 28 26 26 26 26 26 26 26 25 25 25 25 25 25 25 23 22 21 21 21 21 20 19 19 19
29 29 29 30 29 30 29 29 27 27 26 25 25 25 25 25 25 24 25 25 25 24 24 23 23 22 22 21 19 18 18 18
28 28 28 29 29 29 28 28 27 26 25 25 25 24 24 25 25 24 24 24 24 24 24 23 23 23 21 20 19 18 18 18
27 27 27 27 26 26 26 27 26 25 25 24 24 24 24 24 24 24 24 24 24 24 24 23 23 22 19 18 18 18 18 17
26 25 25 26 26 25 25 25 25 25 24 24 24 24 24 24 24 24 23 23 23 23 23 23 23 21 18 18 18 18 17 17
25 25 26 25 25 25 25 24 24 24 24 23 23 22 23 23 23 23 23 23 23 23 23 22 21 19 18 18 17 16 16 16
24 25 25 25 25 24 24 23 23 23 23 23 22 21 20 21 21 22 22 22 22 22 21 20 18 17 17 17 16 15 15 14
23 23 24 24 24 23 22 21 22 22 22 22 22 21 19 18 19 19 18 18 18 18 17 16 15 16 16 16 16 15 14 14

GFSFLT1_925_temp_234.txt.gz
Temp
36 36 36 35 33 30 28 26 26 24 24 23 24 24 24 24 24 24 24 23 22 23 23 23 23 23 23 24 23 23 23 23
37 36 36 35 34 31 28 27 26 25 24 23 24 24 24 24 24 25 24 24 22 22 22 22 23 23 23 23 23 23 23 23
37 36 36 35 34 31 29 27 26 25 24 24 24 24 24 25 24 24 25 24 23 22 22 22 22 23 23 23 23 23 23 23
36 36 35 34 34 32 30 28 26 25 25 24 24 25 25 25 25 24 25 24 24 22 22 22 22 22 22 23 23 23 22 22
36 36 34 34 33 33 32 30 27 25 25 25 25 25 25 25 25 25 24 25 24 23 22 21 21 22 22 22 22 22 22 22
34 34 35 34 34 33 33 32 29 27 25 26 25 25 26 26 26 26 25 25 24 23 23 22 21 21 22 22 22 22 22 21
33 34 35 35 34 34 33 32 32 28 26 25 26 25 26 26 26 26 26 25 24 23 23 22 21 21 21 22 22 21 21 21
33 33 34 34 33 33 32 31 31 31 29 26 25 26 26 26 26 26 26 25 25 23 23 22 21 21 21 21 21 21 21 20
32 32 31 32 32 34 33 31 30 29 29 29 27 25 25 26 26 26 26 26 25 25 23 22 22 21 21 21 21 20 21 21
31 32 31 31 31 31 31 31 30 29 28 27 28 28 25 26 26 26 26 27 26 25 24 22 22 21 20 20 20 21 20 20
30 30 29 31 32 31 30 30 29 29 28 27 26 27 27 25 25 26 26 26 27 26 25 23 21 21 21 20 20 20 20 20
28 28 28 30 30 30 30 28 28 27 27 27 26 26 26 26 25 25 25 25 26 26 25 23 21 21 21 20 20 20 20 20
27 27 28 28 27 29 29 29 27 27 26 26 26 25 26 26 25 25 24 25 25 25 25 23 22 21 21 20 20 20 20 20
26 26 26 27 27 27 26 26 27 27 26 26 25 25 25 25 25 25 25 24 24 25 25 24 22 21 21 20 20 20 19 19
24 24 25 25 25 26 26 26 25 25 26 25 25 24 24 24 24 24 25 24 24 24 24 24 23 22 21 21 20 20 19 18
24 24 23 24 25 25 24 24 25 24 24 25 24 24 24 24 24 24 24 24 24 24 24 24 23 23 22 22 21 20 18 18
25 25 25 24 24 24 24 24 24 24 23 23 24 23 23 22 23 23 23 23 24 23 23 23 23 23 22 21 20 19 18 18
24 24 23 23 22 23 23 24 23 22 22 22 23 23 22 22 21 21 22 23 23 23 23 23 23 22 21 20 20 18 17 17
21 21 21 21 21 21 22 22 21 21 21 21 22 22 22 21 20 20 20 20 21 21 22 22 22 21 19 19 18 17 16 16

GFSFLT1_925_temp_237.txt.gz
Temp
32 32 31 29 28 26 25 24 23 22 23 23 23 23 23 24 23 23 23 23 23 22 22 23 23 23 23 23 23 23 23 23
33 32 32 30 28 26 25 24 24 22 22 22 22 23 23 24 23 24 24 23 23 23 23 23 23 23 23 23 23 23 23 23
30 33 32 31 29 26 25 25 24 23 22 22 22 23 23 23 24 24 23 24 23 23 23 23 22 23 23 23 23 23 23 23
30 31 31 32 28 27 26 25 25 24 23 23 22 23 23 23 23 24 24 23 24 23 23 23 22 22 22 23 23 23 22 22
31 28 29 31 28 28 26 25 25 24 23 23 22 22 23 23 23 23 23 24 24 24 23 22 22 22 22 22 22 22 22 21
27 27 29 30 29 28 27 26 25 25 23 23 23 23 23 23 23 23 23 23 24 24 23 22 21 22 22 22 22 22 22 21
28 28 31 32 31 28 27 26 25 25 24 24 23 23 23 23 23 23 23 23 23 23 24 23 22 21 21 21 21 22 21 21
25 27 26 28 30 28 27 26 25 25 24 24 23 23 23 23 23 23 23 23 22 23 23 22 21 21 20 20 21 21 21 20
24 25 25 27 29 31 29 26 26 25 24 24 24 24 23 24 24 24 24 23 23 23 23 22 22 21 20 20 20 21 20 20
26 25 25 28 29 28 31 31 29 26 25 24 23 23 24 24 23 24 24 24 24 24 23 23 22 21 20 20 19 19 20 20
24 24 23 26 27 28 27 28 29 29 25 25 25 24 24 24 24 24 24 24 24 24 24 24 22 21 20 20 19 19 19 19
23 23 24 26 26 26 26 28 28 28 28 28 27 26 26 26 25 24 24 24 24 25 24 24 22 21 20 19 20 19 19 19
21 20 22 25 24 25 25 25 25 25 26 26 26 26 25 25 25 25 24 24 25 25 25 24 22 21 21 20 19 19 19 18
19 20 20 21 22 24 24 24 25 25 25 24 25 25 24 24 24 25 24 24 24 24 24 24 23 22 20 20 20 19 19 19
20 19 20 21 23 24 24 25 25 24 25 24 24 24 24 24 23 24 24 24 23 24 24 24 23 23 21 20 19 19 19 18
22 20 20 20 20 20 22 23 24 24 24 24 24 24 23 23 23 23 23 23 23 23 23 24 23 23 21 20 19 19 19 19
19 20 20 20 19 19 20 21 22 22 22 22 22 23 23 22 22 22 22 22 22 23 23 23 23 23 22 21 20 19 19 19
17 17 17 19 20 20 19 20 20 22 21 21 21 21 21 21 21 22 21 21 21 21 22 23 23 23 23 22 21 20 19 18
15 15 15 16 16 19 20 20 20 20 21 21 21 21 21 21 20 20 21 20 20 20 20 21 22 22 22 22 21 20 18 18

GFSFLT1_925_temp_243.txt.gz
Temp
27 26 25 23 22 21 20 20 20 19 19 19 19 19 20 20 21 21 21 21 21 20 20 20 20 20 20 20 20 20 20 20
27 27 26 24 22 21 21 20 19 20 19 18 18 18 18 19 20 21 22 21 21 21 20 20 20 20 20 20 20 20 20 19
25 27 27 25 23 22 21 21 20 19 20 19 19 19 19 19 20 21 22 22 22 22 21 20 20 20 20 20 20 19 19 19
24 25 27 26 25 23 22 21 21 20 20 20 20 19 19 18 19 21 21 21 22 22 22 21 20 20 19 20 20 19 19 19
24 23 26 27 26 25 23 22 21 20 20 20 20 19 20 20 20 19 20 22 22 22 22 21 21 21 20 20 20 20 19 19
23 21 24 26 27 26 24 23 22 21 20 21 20 20 21 21 21 20 20 21 22 22 22 22 22 21 21 21 20 20 19 19
22 23 23 24 25 27 26 24 22 21 20 21 20 21 21 21 20 20 19 20 20 21 22 22 21 21 21 21 21 20 20 19
19 20 20 20 21 26 27 25 23 22 21 21 21 21 21 21 21 20 20 19 19 20 21 21 21 22 21 20 20 20 20 19
19 19 19 19 19 22 26 25 24 23 21 21 21 21 21 21 21 21 20 20 20 20 20 20 21 20 20 20 20 20 19 19
18 18 19 19 19 18 20 24 24 23 22 21 21 21 21 21 21 21 20 20 20 21 21 20 20 21 21 20 19 19 19 19
19 18 18 18 19 18 18 21 22 23 22 21 21 21 21 21 22 22 20 21 21 21 21 22 22 21 20 19 19 19 18 18
17 17 17 17 17 18 17 17 19 21 21 22 21 21 21 20 20 20 21 22 22 22 22 22 22 21 20 19 19 18 18 18
15 15 15 15 15 15 16 16 16 18 19 20 20 20 20 21 21 21 22 19 20 21 22 21 21 21 21 20 19 18 18 17
14 14 13 14 14 14 14 14 15 15 18 19 19 19 20 20 20 20 19 21 21 21 20 20 20 20 20 20 20 19 18 18
13 13 13 13 13 13 13 13 14 14 15 16 17 19 20 19 20 20 21 21 21 21 21 21 20 20 19 20 19 19 19 18
13 13 12 12 12 12 12 12 13 13 14 14 15 16 17 19 20 20 20 20 20 19 19 20 20 19 19 19 19 18 18 18
12 12 12 12 12 12 11 11 11 12 13 13 13 15 16 16 17 18 19 20 20 20 19 18 19 19 19 19 18 18 18 18
11 11 11 11 11 11 10 10 10 11 11 12 13 13 13 15 15 16 17 17 19 19 19 19 19 18 17 18 18 17 17 17
10 10 9 9 10 10 9 9 10 10 10 11 11 11 11 12 13 14 15 16 17 17 19 19 19 19 18 17 17 17 17 17

GFSFLT1_925_temp_246.txt.gz
Temp
24 25 24 22 22 22 21 20 18 18 17 17 17 18 19 19 20 21 21 20 20 20 20 21 20 20 20 19 19 20 19 20
24 25 25 23 21 21 21 20 19 18 17 17 16 17 17 18 19 20 21 21 20 20 20 20 20 20 20 20 19 19 19 18
22 24 25 24 22 21 21 20 19 20 18 18 18 17 17 18 19 20 21 21 21 21 20 20 20 19 19 19 19 18 18 18
20 21 23 25 23 21 21 21 20 19 19 18 18 18 18 17 18 19 21 20 21 21 21 20 20 20 19 19 19 18 17 18
18 19 21 22 25 23 21 21 20 20 19 19 19 19 18 19 19 18 18 19 21 22 21 21 20 20 19 19 19 19 18 17
17 17 19 19 19 23 23 22 21 20 19 20 19 19 20 20 19 19 18 19 20 21 21 20 20 20 20 20 19 19 18 18
17 18 18 18 17 17 20 23 21 20 19 19 20 20 20 20 20 19 18 18 18 19 21 20 21 20 20 20 19 19 19 18
17 16 17 17 17 16 15 19 22 21 20 19 20 20 20 20 20 19 19 18 17 19 19 19 19 20 20 19 19 19 19 18
16 15 15 15 16 15 15 15 21 22 20 20 19 20 20 20 20 20 19 19 18 18 18 18 18 18 18 18 18 19 19 19
14 14 14 14 14 14 14 15 15 18 21 20 19 20 20 20 20 20 19 19 19 19 19 19 18 18 18 18 18 18 18 18
13 13 14 13 13 13 13 14 14 14 16 20 20 20 20 20 20 20 20 19 20 20 20 19 19 19 19 19 18 18 18 18
13 13 13 13 13 13 12 12 13 14 14 15 17 19 20 20 20 20 20 19 19 19 21 21 20 20 19 18 18 18 17 17
13 12 12 12 12 12 12 12 12 12 13 14 14 15 16 17 19 19 19 18 18 18 19 19 18 18 18 18 18 18 18 17
13 12 12 12 12 11 11 11 11 11 12 13 13 13 14 15 16 17 17 17 17 16 16 17 17 18 17 18 18 18 18 18
12 11 11 11 11 11 10 10 10 11 11 12 12 12 13 14 15 16 16 17 17 17 17 18 18 19 19 19 18 18 18 18
11 11 11 11 10 10 10 9 9 9 10 10 11 11 12 13 15 15 16 17 17 18 18 19 19 19 19 18 18 17 18 18
10 10 10 10 9 9 9 8 8 9 9 9 10 10 10 11 11 14 14 14 16 16 17 18 19 19 18 18 17 17 17 17
9 9 9 8 8 8 8 7 7 8 8 8 8 8 9 8 9 10 11 13 13 14 15 16 17 19 19 19 18 17 17 17
8 8 7 7 7 7 6 6 6 6 6 7 6 7 7 7 8 8 9 9 11 12 12 14 15 17 18 18 17 17 16 17

GFSFLT1_925_temp_249.txt.gz
Temp
24 23 24 23 22 20 20 18 18 17 17 16 16 16 16 16 17 17 17 19 21 20 19 19 20 18 18 18 18 18 18 19
23 22 22 23 22 21 20 19 19 17 17 16 16 16 16 16 17 17 18 18 19 20 18 19 19 18 18 18 18 18 18 17
20 19 19 19 21 21 20 19 19 18 18 18 18 18 17 18 17 17 18 19 19 19 19 18 18 18 18 17 17 18 18 17
19 18 18 18 17 17 20 20 19 18 19 18 18 19 18 17 17 17 18 18 18 18 19 19 18 18 18 18 17 18 19 17
18 17 17 17 16 15 16 19 20 19 18 19 19 19 20 19 19 18 18 17 17 18 18 18 18 18 18 18 18 18 18 20
17 17 16 16 15 14 15 15 19 20 18 19 18 19 20 21 20 19 18 18 18 17 18 18 18 18 18 18 17 17 18 19
16 15 15 16 15 14 14 14 16 19 19 18 19 19 20 21 20 19 19 18 18 17 18 17 17 17 18 18 18 17 17 18
16 15 15 14 14 14 13 14 14 15 20 19 18 19 19 20 20 19 19 19 19 18 18 18 17 17 18 17 17 18 17 18
15 14 14 13 13 13 12 13 14 13 15 19 18 19 19 19 20 20 19 19 19 18 17 17 17 17 17 17 17 17 17 17
14 13 13 13 12 12 11 11 12 12 13 13 14 18 19 19 19 20 19 19 19 19 17 17 17 17 17 17 17 17 17 17
13 13 12 11 12 11 11 11 11 11 12 12 11 11 14 18 19 19 19 19 19 19 18 18 18 18 17 17 17 17 17 17
13 13 12 11 11 11 10 10 10 10 11 11 12 11 11 11 12 15 18 19 19 19 18 18 17 18 17 17 17 18 17 17
13 12 11 11 11 10 10 9 9 9 10 10 10 10 11 11 13 13 13 14 16 17 17 17 17 17 17 18 17 17 17 17
12 12 11 11 10 10 9 9 8 8 9 9 9 9 9 10 10 12 14 15 15 15 17 16 17 17 16 16 16 16 16 17
12 11 11 10 9 9 9 8 8 8 7 8 8 8 8 8 9 10 11 12 14 15 14 15 15 15 15 16 17 16 16 17
11 10 10 9 9 8 8 7 7 7 7 6 7 7 7 7 7 8 9 10 11 13 15 15 14 15 15 16 16 17 16 17
10 10 9 8 8 8 7 7 6 6 6 6 5 4 5 5 5 6 7 7 8 10 11 14 16 16 16 17 17 16 17 18
10 9 8 7 7 6 6 6 5 5 5 5 5 4 3 3 4 4 5 6 6 7 8 9 12 15 16 16 16 16 16 16
9 8 7 7 6 5 5 5 5 4 5 4 4 3 3 2 3 3 3 4 5 6 6 7 8 10 13 15 14 14 15 16

GFSFLT1_925_temp_252.txt.gz
Temp
22 22 21 22 23 25 24 23 22 22 21 21 21 20 19 21 21 21 21 20 19 20 21 21 21 21 22 22 22 22 22 23
21 20 20 19 19 19 21 24 23 21 22 22 22 22 20 19 21 21 21 20 20 20 20 21 20 21 22 22 21 21 22 22
20 20 19 19 18 17 18 19 21 22 22 22 23 23 22 21 20 21 20 20 20 20 20 21 21 21 21 21 21 22 22 22
20 19 19 19 18 17 17 17 18 19 22 22 22 22 22 22 21 21 21 20 20 20 20 20 21 20 21 20 20 20 22 22
20 19 19 18 17 16 16 16 16 18 19 21 21 22 22 22 23 22 22 21 20 20 19 20 20 21 20 21 20 20 20 23
20 19 18 18 17 16 15 16 15 15 16 18 21 21 22 22 22 23 22 22 20 20 20 20 20 19 20 20 21 20 21 21
18 18 17 17 16 15 15 15 14 13 13 14 17 20 21 21 22 23 22 22 21 20 20 19 19 20 20 20 20 20 20 21
18 17 16 15 15 14 14 13 14 11 11 12 11 13 19 20 21 22 22 22 22 21 20 19 19 19 20 20 20 20 20 20
17 16 15 14 13 13 12 11 12 11 11 11 11 10 9 15 20 20 21 22 22 21 21 19 19 19 20 19 19 19 20 19
17 16 15 15 13 12 10 10 10 9 10 10 10 9 9 9 10 14 16 20 21 21 21 20 19 19 19 19 19 19 19 19
17 16 15 14 13 12 10 9 9 9 9 9 9 9 9 8 8 9 10 11 15 19 20 20 20 19 19 19 20 19 19 19
16 15 15 14 13 12 11 9 9 8 8 8 8 8 8 8 8 8 8 10 10 13 16 19 19 19 19 19 19 20 19 19
16 15 14 13 13 12 11 9 8 8 8 7 7 7 7 7 7 7 9 8 9 11 11 13 16 18 18 18 19 19 19 18
16 15 14 13 12 11 11 10 9 8 8 7 6 6 6 6 6 6 7 8 9 9 11 12 12 15 17 17 18 19 19 19
15 14 14 13 12 11 11 10 9 8 8 7 6 5 4 4 5 5 6 6 7 9 9 10 11 13 15 15 16 17 17 17
14 14 13 12 11 11 10 9 9 8 8 7 7 5 4 4 4 4 4 5 6 6 8 9 10 11 13 11 11 14 16 16
14 13 12 11 10 10 9 9 8 8 8 7 7 6 6 4 4 3 3 4 4 5 6 7 9 11 10 10 9 12 13 15
13 12 11 10 10 9 8 8 8 8 7 7 6 6 6 5 4 3 3 3 3 4 4 5 8 9 9 8 10 10 11 13
12 11 10 9 9 8 8 8 8 7 7 7 6 5 5 6 5 4 3 2 2 2 3 4 5 8 7 6 7 10 12 13

GFSFLT1_925_temp_255.txt.gz
Temp
22 22 21 20 20 21 21 21 24 24 23 24 24 24 24 23 24 24 24 23 21 21 22 23 23 23 23 23 23 24 23 24
22 21 20 20 19 19 19 20 19 20 23 23 24 24 24 24 23 24 24 23 22 21 21 22 22 23 23 24 23 23 24 23
22 21 20 19 19 18 18 18 18 17 18 20 23 24 24 25 24 23 23 23 22 22 21 22 22 22 23 23 23 23 23 23
22 21 20 19 18 17 18 17 16 15 14 16 18 22 24 24 24 24 23 22 22 22 22 21 22 22 22 22 22 22 23 24
21 21 20 19 18 17 17 16 15 15 14 13 13 12 18 25 24 24 24 23 22 22 21 21 21 22 22 22 21 22 22 23
21 20 19 18 17 16 15 16 14 13 13 13 12 10 10 15 23 24 24 24 24 23 22 21 21 21 22 22 22 22 22 22
20 19 18 17 16 15 15 15 14 13 11 11 11 10 9 9 11 14 21 23 23 23 22 22 21 21 21 21 21 22 21 22
20 19 18 17 16 14 14 14 13 12 11 10 9 9 9 8 8 9 10 12 18 22 23 22 21 21 21 21 21 21 21 22
19 18 17 17 16 14 13 13 13 12 11 9 9 9 8 8 8 7 8 9 9 11 17 21 22 21 21 20 21 21 21 21
19 18 17 16 16 14 13 12 12 11 10 9 8 8 8 7 8 8 8 8 8 9 10 15 18 21 21 20 20 21 21 21
19 18 17 16 15 15 14 12 11 11 10 9 8 7 7 7 7 7 8 9 8 9 9 9 12 17 19 20 20 20 20 21
19 18 17 16 15 15 14 13 12 11 10 9 7 6 6 6 6 6 6 7 8 7 8 9 9 10 13 15 19 19 20 20
18 17 17 16 15 14 14 13 12 11 11 10 9 7 6 5 5 5 5 5 6 6 7 8 9 9 10 9 14 18 18 19
18 17 16 15 14 14 13 13 12 11 11 10 10 8 7 5 5 4 4 4 5 6 6 7 8 9 9 9 7 8 12 18
17 17 16 15 14 13 12 12 11 11 11 10 10 9 8 8 6 5 4 3 4 5 5 5 7 8 9 8 7 7 8 10
17 16 15 14 13 12 12 11 11 11 10 10 10 9 8 8 7 6 5 5 4 3 4 4 5 6 9 7 7 6 7 10
16 15 14 13 13 12 11 11 10 10 10 10 9 9 8 8 7 7 7 6 5 4 4 4 4 5 5 6 6 6 7 9
15 14 13 12 12 11 11 10 10 10 10 9 9 8 8 8 7 7 7 7 6 5 4 4 4 4 5 4 4 4 7 9
14 13 12 12 12 11 10 10 10 9 9 8 8 8 7 7 7 7 6 6 6 5 5 5 4 4 3 3 3 3 6 8

GFSFLT1_925_temp_258.txt.gz
Temp
22 20 19 19 18 17 17 17 17 18 21 20 23 24 24 24 24 24 24 24 22 22 22 22 22 23 23 23 23 23 23 23
21 20 18 18 18 17 16 16 15 16 16 16 18 18 20 24 24 24 24 24 24 22 22 21 22 22 23 23 23 23 23 23
21 20 18 17 17 16 15 15 14 14 15 14 15 17 19 21 23 23 24 24 24 23 22 21 21 22 22 23 23 23 23 23
21 19 18 17 16 16 15 14 14 13 13 14 14 17 17 16 17 18 19 23 23 23 23 22 21 21 22 22 22 23 22 22
20 19 18 17 16 15 15 14 13 12 11 11 12 12 11 10 10 11 16 18 18 23 23 22 22 21 21 22 22 22 22 21
20 19 18 17 15 15 14 14 13 11 11 10 10 10 11 11 12 10 12 14 14 16 16 19 22 21 21 21 22 22 21 21
20 19 18 17 15 14 14 14 13 12 11 10 9 8 8 9 9 10 11 12 11 10 12 13 17 19 21 21 21 21 21 21
19 18 18 16 15 14 13 13 13 12 11 10 9 8 8 8 7 8 8 8 10 10 9 9 10 12 16 20 20 20 21 21
19 18 17 17 16 14 13 13 12 11 11 10 9 8 7 7 7 7 7 7 8 9 9 9 9 9 11 15 19 20 20 20
19 18 17 17 16 14 14 13 13 12 11 10 9 8 7 6 6 7 6 6 7 8 8 9 10 10 9 10 12 15 20 20
19 18 17 17 16 15 14 13 13 12 11 11 10 9 8 6 6 5 5 6 5 6 7 7 8 9 8 9 10 10 13 17
19 18 17 16 16 15 14 13 13 12 11 11 10 10 9 8 7 6 5 5 5 5 6 6 6 7 8 8 8 8 7 9
18 18 17 16 15 14 14 13 12 12 12 11 11 10 9 8 8 8 6 5 5 5 4 5 5 6 7 8 7 7 6 7
18 18 17 16 15 14 13 12 12 11 11 11 11 10 9 9 8 8 7 7 6 5 5 4 4 5 5 7 6 6 6 6
18 17 16 15 14 13 13 12 11 11 11 11 10 10 9 9 8 8 8 7 7 7 6 5 4 4 5 5 5 5 5 6
17 16 15 14 13 13 12 12 11 11 11 10 10 9 9 8 8 8 8 7 7 6 6 6 5 4 5 4 3 3 3 4
17 16 15 14 13 12 12 11 11 10 10 10 9 9 8 8 8 7 7 7 6 6 6 6 5 5 5 4 3 2 2 3
16 15 14 13 12 12 11 11 10 10 10 9 8 8 7 7 7 7 6 6 5 5 5 5 5 4 4 4 3 3 2 3
14 13 12 12 12 11 10 10 10 9 9 8 7 7 7 7 6 6 5 4 4 3 3 3 3 3 3 3 3 3 2 3

GFSFLT1_925_temp_261.txt.gz
Temp
17 17 16 15 15 14 14 15 16 16 19 20 21 21 21 20 20 21 23 24 24 23 23 22 23 22 22 22 23 23 23 23
17 16 16 15 14 14 13 14 14 14 15 17 18 16 17 17 18 18 19 20 19 23 23 23 22 22 22 22 22 22 23 22
16 16 15 15 14 13 13 13 13 13 13 12 13 14 14 14 15 15 17 17 18 18 19 21 22 22 22 22 21 22 22 22
16 15 15 15 14 14 13 12 12 12 12 12 13 13 13 14 13 14 13 15 16 15 16 16 18 19 21 21 22 21 20 21
16 15 14 14 14 14 13 12 11 11 11 11 10 9 9 9 9 9 10 10 13 14 14 13 14 15 16 17 21 21 21 20
14 15 14 14 13 13 13 12 11 11 10 10 9 9 8 8 9 10 10 10 9 9 12 12 12 13 13 13 15 18 20 20
15 15 14 14 14 13 13 12 11 10 10 9 9 8 8 7 8 7 8 8 8 8 7 8 9 10 10 11 11 14 16 19
13 15 14 14 13 13 13 12 11 11 10 9 9 8 8 7 6 6 6 6 7 8 8 7 7 8 10 11 10 9 11 13
13 15 15 14 14 13 13 13 11 11 11 10 9 9 8 8 7 7 6 6 6 7 7 6 8 7 7 8 9 8 8 8
13 15 15 15 14 14 13 12 12 11 11 10 10 9 9 8 8 7 7 7 6 6 6 6 6 6 7 7 7 8 9 8
14 15 15 15 14 14 13 12 12 11 11 11 10 10 9 9 8 8 7 7 7 7 6 5 5 5 5 6 7 7 6 8
13 15 15 14 14 13 13 12 12 11 11 11 10 10 9 9 8 8 8 7 7 7 7 6 5 5 4 5 5 6 6 6
14 15 15 14 13 13 12 12 11 11 11 10 10 9 9 8 8 8 7 7 7 7 6 6 6 5 4 4 4 5 4 4
13 14 14 13 13 13 12 11 11 11 10 10 10 9 8 8 8 7 7 7 6 6 6 6 5 5 5 5 4 4 3 3
13 12 13 13 13 12 12 11 11 10 10 10 9 8 8 7 7 7 6 6 5 5 5 5 5 4 5 5 4 4 3 3
13 11 12 12 12 12 11 11 10 10 10 9 8 8 7 7 7 6 5 5 4 4 3 3 3 3 4 3 4 3 2 2
14 13 12 12 12 11 10 10 10 9 9 8 7 7 7 6 6 5 5 4 3 2 2 2 2 2 2 2 2 2 2 2
13 12 12 12 11 10 10 10 9 9 8 7 7 6 6 6 5 4 3 2 2 1 1 2 2 2 2 2 2 1 1 2
11 11 11 11 10 10 9 9 9 8 7 7 6 6 5 5 3 2 1 1 1 1 1 1 1 1 1 1 1 1 1 2